Location: South Range
(44.4886°N, 65.7879°W)
Time: 20:16:46
(UTC-04:00)

Iridium 56 - Visible Passes

Search period start: 22 February 2017 00:00
Search period end: 04 March 2017 00:00
Orbit: 776 x 779 km, 86.4° (Epoch: 22 February)

Date Brightness Start Highest point End Pass type
(mag) Time Alt. Az. Time Alt. Az. Time Alt. Az.
22 Feb 7.8 03:26:18 10° NNE 03:28:26 20° NE 03:28:26 20° NE visible
22 Feb 6.9 05:06:37 10° NNW 05:08:53 24° NNW 05:08:53 24° NNW visible
23 Feb 8.4 02:53:51 10° NE 02:54:32 12° NE 02:54:32 12° NE visible
23 Feb 7.0 04:32:51 10° N 04:35:00 25° N 04:35:00 25° N visible
24 Feb 7.4 03:59:21 10° N 04:01:12 22° N 04:01:12 22° N visible
24 Feb 7.6 05:41:28 10° NW 05:41:38 11° NW 05:41:38 11° NW visible
25 Feb 7.9 03:26:05 10° NNE 03:27:28 17° NNE 03:27:28 17° NNE visible
25 Feb 7.5 05:07:01 10° NNW 05:07:55 14° NNW 05:07:55 14° NNW visible
26 Feb 8.4 02:53:13 10° NNE 02:53:47 12° NNE 02:53:47 12° NNE visible
26 Feb 7.5 04:33:04 10° NNW 04:34:14 17° NNW 04:34:14 17° NNW visible
27 Feb 7.7 03:59:25 10° N 04:00:35 17° N 04:00:35 17° N visible
28 Feb 8.0 03:26:01 10° N 03:26:58 15° N 03:26:58 15° N visible
01 Mar 8.3 02:52:52 10° NNE 02:53:23 12° NNE 02:53:23 12° NNE visible
01 Mar 7.8 04:33:25 10° NNW 04:33:50 12° NNW 04:33:50 12° NNW visible
02 Mar 7.8 03:59:35 10° N 04:00:16 14° N 04:00:16 14° N visible
03 Mar 8.0 03:26:02 10° N 03:26:43 14° N 03:26:43 14° N visible
